This is the latest recevied weather packets stored in our database for station/object DC1NF-7. If no packets are shown the sender has not sent any weather packets the latest 1 day(s).
| Time | Temp. | Humidity | Pressure | Rain* | Wind** | Luminosity | Snow |
|---|---|---|---|---|---|---|---|
| 1778045140 | 12.22° C | 92% | 1006.9 hPa | 0 mm | - | 100 W/m² | - |
| 1778044536 | 12.22° C | 91% | 1007 hPa | 0 mm | - | 112 W/m² | - |
| 1778043932 | 12.22° C | 92% | 1007.2 hPa | 0 mm | - | 88 W/m² | - |
| 1778043328 | 12.22° C | 93% | 1007.2 hPa | 0 mm | - | 77 W/m² | - |
| 1778042724 | 11.11° C | 96% | 1007 hPa | 0 mm | - | 51 W/m² | - |
| 1778040977 | 11.11° C | 97% | 1007 hPa | 0 mm | - | 17 W/m² | - |
| 1778040374 | 11.11° C | 97% | 1007 hPa | 0 mm | - | 11 W/m² | - |
| 1778039768 | 11.11° C | 97% | 1006.9 hPa | 0 mm | - | 6 W/m² | - |
| 1778037957 | 11.11° C | 96% | 1006.9 hPa | 0 mm | - | 0 W/m² | - |
| 1778037352 | 11.11° C | 97% | 1007 hPa | 0 mm | - | 0 W/m² | - |
| 1778036749 | 11.11° C | 97% | 1007 hPa | 0 mm | - | 0 W/m² | - |
| 1778036149 | 11.11° C | 97% | 1007 hPa | 0 mm | - | 0 W/m² | - |
| 1778035543 | 11.11° C | 96% | 1007 hPa | 0 mm | - | 0 W/m² | - |
| 1778034938 | 11.11° C | 97% | 1007.2 hPa | 0 mm | - | 0 W/m² | - |
| 1778034334 | 11.11° C | 96% | 1007 hPa | 0 mm | - | 0 W/m² | - |
| 1778032524 | 11.67° C | 96% | 1006.8 hPa | 0 mm | - | 0 W/m² | - |
| 1778031917 | 11.67° C | 96% | 1007 hPa | 0 mm | - | 0 W/m² | - |
| 1778031374 | 11.67° C | 96% | 1007.1 hPa | 0 mm | - | 0 W/m² | - |
| 1778030771 | 11.67° C | 96% | 1007.2 hPa | 0 mm | - | 0 W/m² | - |
| 1778030168 | 11.67° C | 96% | 1007.3 hPa | 0 mm | - | 0 W/m² | - |
| 1778029564 | 11.67° C | 96% | 1007.2 hPa | 0 mm | - | 0 W/m² | - |
| 1778028960 | 11.67° C | 96% | 1007.2 hPa | 0 mm | - | 0 W/m² | - |
| 1778028355 | 11.67° C | 96% | 1007.2 hPa | 0 mm | - | 0 W/m² | - |
| 1778027152 | 11.67° C | 96% | 1007.5 hPa | 0 mm | - | 0 W/m² | - |
| 1778025343 | 11.67° C | 96% | 1007.6 hPa | 0 mm | - | 0 W/m² | - |
* Rain latest hour (hover to see other rain measurements)
** Current wind speed in m/s (hover to see current wind gust speed)